{"data":{"norad_id":68409,"intl_designator":"2026-065B","name":"LPNTSAT-002 (IOD-2)","alt_names":[],"object_type":"PAYLOAD","status":"ACTIVE","operator":null,"country":"ESA","launch_date":"2026-03-28","launch_site_code":"RLLB","launch_vehicle":null,"mission":null,"orbit_class":"UNKNOWN","rcs_meters":null,"size_class":null,"mass_kg":null,"dimensions":null,"purposes":[],"wikipedia_slug":null,"has_3d_model":false,"image_url":null,"decayed_at":null,"tle_current":{"epoch":"2026-09-18T22:47:39.045408Z","epoch_age_seconds":203719,"freshness":"STALE","line1":"1 68409U 26065B   26261.94975747  .00004939  00000+0  23013-3 0  9991","line2":"2 68409  97.3846 140.5840 0014721  37.6239 322.6023 15.20254314 26488","mean_motion":15.20254314,"eccentricity":0.0014721,"inclination_deg":97.3846,"raan_deg":140.584,"arg_perigee_deg":37.6239,"mean_anomaly_deg":322.6023,"bstar":0.00023013,"rev_number":2648,"period_min":94.720994161244,"perigee_km":494.9401002126,"apogee_km":515.20564672207,"semimajor_km":6883.2098734673,"source":"CELESTRAK","updated_at":"2026-09-20T09:00:24.196091Z"}}}